• Em Portugal
  • Lista de países
  • Para 7 dias
  • Temperatura da água
  • Mapas de satélite
  • Mapa do tempo
  • Widgets de tempo
  • user-avatar
    Iniciar Sessão

    Previsão horária em Sevan

    Hoje, 24 Novembro, Sexta-feira

    Tempo Temperatura Precipitação Vento Pressão Humidade
    00:00 -3°C° 0,1 mm 1 m/s 637 mmHg 72%
    01:00 -3°C° 0,1 mm 1 m/s 637 mmHg 73%
    02:00 -3°C° 0,1 mm 1 m/s 637 mmHg 73%
    03:00 -3°C° 0 mm 1 m/s 636 mmHg 77%
    04:00 -3°C° 0,1 mm 1 m/s 636 mmHg 77%
    05:00 -4°C° 0,1 mm 1 m/s 637 mmHg 77%
    06:00 -4°C° 0,1 mm 1 m/s 637 mmHg 77%
    07:00 -3°C° 0,1 mm 1 m/s 637 mmHg 74%
    08:00 -3°C° 0,1 mm 1 m/s 638 mmHg 71%
    09:00 -2°C° 0 mm 1 m/s 638 mmHg 66%
    10:00 -2°C° 0 mm 1 m/s 638 mmHg 62%
    11:00 -3°C° 0 mm 2 m/s 638 mmHg 58%
    12:00 -3°C° 0 mm 2 m/s 638 mmHg 55%
    13:00 -3°C° 0 mm 2 m/s 638 mmHg 54%
    14:00 -3°C° 0 mm 2 m/s 638 mmHg 54%
    15:00 -3°C° 0 mm 2 m/s 638 mmHg 53%
    16:00 -4°C° 0 mm 2 m/s 638 mmHg 56%
    17:00 -5°C° 0 mm 2 m/s 639 mmHg 59%
    18:00 -6°C° 0 mm 2 m/s 639 mmHg 62%
    19:00 -6°C° 0 mm 2 m/s 639 mmHg 61%
    20:00 -7°C° 0 mm 2 m/s 639 mmHg 60%
    21:00 -7°C° 0 mm 2 m/s 639 mmHg 59%
    22:00 -7°C° 0 mm 2 m/s 639 mmHg 58%
    23:00 -8°C° 0 mm 2 m/s 639 mmHg 57%

    Amanhã, 25 Novembro, Sábado

    Tempo Temperatura Precipitação Vento Pressão Humidade
    00:00 -8°C° 0 mm 2 m/s 639 mmHg 56%
    01:00 -8°C° 0 mm 2 m/s 640 mmHg 57%
    02:00 -8°C° 0 mm 2 m/s 640 mmHg 58%
    03:00 -8°C° 0 mm 2 m/s 640 mmHg 58%
    04:00 -7°C° 0,1 mm 2 m/s 641 mmHg 61%
    05:00 -7°C° 0,1 mm 2 m/s 641 mmHg 63%
    06:00 -7°C° 0,1 mm 2 m/s 641 mmHg 65%
    07:00 -6°C° 0 mm 2 m/s 642 mmHg 64%
    08:00 -6°C° 0 mm 2 m/s 643 mmHg 64%
    09:00 -5°C° 0 mm 2 m/s 643 mmHg 63%
    10:00 -4°C° 0 mm 2 m/s 643 mmHg 60%
    11:00 -3°C° 0 mm 2 m/s 644 mmHg 56%
    12:00 -2°C° 0 mm 2 m/s 644 mmHg 52%
    13:00 -2°C° 0 mm 2 m/s 644 mmHg 52%
    14:00 -2°C° 0 mm 2 m/s 644 mmHg 51%
    15:00 -2°C° 0 mm 2 m/s 644 mmHg 51%
    16:00 -3°C° 0 mm 2 m/s 644 mmHg 53%
    17:00 -4°C° 0 mm 2 m/s 644 mmHg 56%
    18:00 -6°C° 0 mm 2 m/s 644 mmHg 59%
    19:00 -6°C° 0 mm 2 m/s 644 mmHg 59%
    20:00 -6°C° 0 mm 2 m/s 645 mmHg 58%
    21:00 -6°C° 0 mm 2 m/s 645 mmHg 58%
    22:00 -6°C° 0 mm 2 m/s 645 mmHg 58%
    23:00 -6°C° 0 mm 2 m/s 645 mmHg 58%

    Depois de amanhã, 26 Novembro, Domingo

    Tempo Temperatura Precipitação Vento Pressão Humidade
    00:00 -6°C° 0 mm 2 m/s 645 mmHg 58%
    01:00 -6°C° 0 mm 2 m/s 645 mmHg 59%
    02:00 -6°C° 0 mm 2 m/s 645 mmHg 60%
    03:00 -7°C° 0 mm 2 m/s 645 mmHg 60%
    04:00 -6°C° 0 mm 1 m/s 645 mmHg 61%
    05:00 -6°C° 0 mm 1 m/s 644 mmHg 62%
    06:00 -6°C° 0 mm 1 m/s 644 mmHg 63%
    07:00 -4°C° 0 mm 1 m/s 645 mmHg 60%
    08:00 -4°C° 0 mm 2 m/s 645 mmHg 57%
    09:00 -3°C° 0 mm 2 m/s 645 mmHg 54%
    10:00 -2°C° 0 mm 2 m/s 645 mmHg 51%
    11:00 -1°C° 0 mm 2 m/s 644 mmHg 48%
    12:00 +2°C° 0 mm 2 m/s 644 mmHg 45%
    13:00 +2°C° 0 mm 2 m/s 644 mmHg 45%
    14:00 +2°C° 0 mm 2 m/s 643 mmHg 46%
    15:00 +2°C° 0 mm 2 m/s 643 mmHg 46%
    16:00 -1°C° 0 mm 2 m/s 643 mmHg 48%
    17:00 -2°C° 0 mm 2 m/s 642 mmHg 50%
    18:00 -3°C° 0 mm 2 m/s 642 mmHg 53%
    19:00 -3°C° 0 mm 2 m/s 642 mmHg 53%
    20:00 -3°C° 0 mm 2 m/s 642 mmHg 53%
    21:00 -2°C° 0 mm 1 m/s 642 mmHg 53%
    22:00 -4°C° 0 mm 2 m/s 642 mmHg 54%
    23:00 -4°C° 0 mm 2 m/s 642 mmHg 55%

    27 Novembro, Segunda-feira

    Tempo Temperatura Precipitação Vento Pressão Humidade
    00:00 -4°C° 0 mm 2 m/s 642 mmHg 56%
    01:00 -4°C° 0 mm 2 m/s 642 mmHg 57%
    02:00 -2°C° 0 mm 1 m/s 642 mmHg 58%
    03:00 -2°C° 0 mm 1 m/s 642 mmHg 59%
    04:00 -2°C° 0 mm 1 m/s 641 mmHg 59%
    05:00 -3°C° 0 mm 1 m/s 641 mmHg 60%
    06:00 -3°C° 0 mm 1 m/s 641 mmHg 61%
    07:00 -1°C° 0 mm 1 m/s 642 mmHg 59%
    08:00 -2°C° 0 mm 2 m/s 642 mmHg 57%
    09:00 -1°C° 0 mm 2 m/s 642 mmHg 54%
    10:00 +1°C° 0 mm 2 m/s 642 mmHg 53%
    11:00 +2°C° 0 mm 2 m/s 642 mmHg 51%
    12:00 +4°C° 0 mm 2 m/s 641 mmHg 49%
    13:00 +4°C° 0 mm 2 m/s 641 mmHg 49%
    14:00 +4°C° 0 mm 2 m/s 641 mmHg 50%
    15:00 +4°C° 0 mm 2 m/s 640 mmHg 50%
    16:00 +2°C° 0 mm 2 m/s 640 mmHg 52%
    17:00 +1°C° 0 mm 2 m/s 640 mmHg 55%
    18:00 -2°C° 0 mm 2 m/s 640 mmHg 58%
    19:00 -2°C° 0 mm 2 m/s 640 mmHg 58%
    20:00 0°C° 0 mm 1 m/s 641 mmHg 58%
    21:00 0°C° 0 mm 1 m/s 641 mmHg 58%
    22:00 -1°C° 0 mm 1 m/s 641 mmHg 59%
    23:00 -1°C° 0 mm 1 m/s 641 mmHg 60%

    28 Novembro, Terça-feira

    Tempo Temperatura Precipitação Vento Pressão Humidade
    00:00 -1°C° 0 mm 1 m/s 640 mmHg 61%
    01:00 -1°C° 0 mm 1 m/s 640 mmHg 62%
    02:00 -1°C° 0 mm 1 m/s 640 mmHg 62%
    03:00 -1°C° 0 mm 1 m/s 640 mmHg 63%
    04:00 -1°C° 0 mm 1 m/s 640 mmHg 63%
    05:00 -1°C° 0 mm 1 m/s 640 mmHg 63%
    06:00 -1°C° 0 mm 1 m/s 640 mmHg 64%
    07:00 0°C° 0 mm 1 m/s 641 mmHg 61%
    08:00 -1°C° 0 mm 2 m/s 641 mmHg 59%
    09:00 +1°C° 0 mm 2 m/s 642 mmHg 57%
    10:00 +2°C° 0 mm 2 m/s 642 mmHg 55%
    11:00 +3°C° 0 mm 2 m/s 642 mmHg 54%
    12:00 +3°C° 0 mm 3 m/s 641 mmHg 52%
    13:00 +3°C° 0 mm 3 m/s 641 mmHg 53%
    14:00 +3°C° 0 mm 3 m/s 641 mmHg 53%
    15:00 +3°C° 0 mm 3 m/s 641 mmHg 53%
    16:00 +3°C° 0 mm 2 m/s 641 mmHg 57%
    17:00 +2°C° 0 mm 2 m/s 641 mmHg 60%
    18:00 -1°C° 0 mm 2 m/s 641 mmHg 63%
    19:00 +1°C° 0 mm 2 m/s 641 mmHg 64%
    20:00 +1°C° 0 mm 2 m/s 641 mmHg 65%
    21:00 +1°C° 0 mm 2 m/s 641 mmHg 66%
    22:00 -1°C° 0 mm 2 m/s 641 mmHg 67%
    23:00 -1°C° 0 mm 2 m/s 641 mmHg 69%

    29 Novembro, Quarta-feira

    Tempo Temperatura Precipitação Vento Pressão Humidade
    00:00 -1°C° 0 mm 2 m/s 641 mmHg 70%
    01:00 -1°C° 0,1 mm 2 m/s 641 mmHg 71%
    02:00 +1°C° 0,1 mm 2 m/s 641 mmHg 71%
    03:00 +1°C° 0,1 mm 2 m/s 642 mmHg 72%
    04:00 +1°C° 0,1 mm 2 m/s 641 mmHg 72%
    05:00 -1°C° 0,1 mm 2 m/s 641 mmHg 73%
    06:00 -1°C° 0,1 mm 2 m/s 641 mmHg 74%
    07:00 +1°C° 0,1 mm 2 m/s 642 mmHg 71%
    08:00 +2°C° 0,1 mm 2 m/s 642 mmHg 69%
    09:00 +3°C° 0,1 mm 2 m/s 642 mmHg 66%
    10:00 +4°C° 0,1 mm 2 m/s 642 mmHg 65%
    11:00 +4°C° 0,1 mm 3 m/s 642 mmHg 63%
    12:00 +5°C° 0,1 mm 3 m/s 641 mmHg 61%
    13:00 +5°C° 0,1 mm 3 m/s 641 mmHg 61%
    14:00 +5°C° 0,1 mm 3 m/s 641 mmHg 61%
    15:00 +5°C° 0,1 mm 3 m/s 641 mmHg 62%
    16:00 +4°C° 0,1 mm 3 m/s 641 mmHg 65%
    17:00 +4°C° 0,1 mm 2 m/s 640 mmHg 67%
    18:00 +3°C° 0,1 mm 2 m/s 640 mmHg 70%
    19:00 +3°C° 0 mm 2 m/s 640 mmHg 70%
    20:00 +3°C° 0 mm 2 m/s 640 mmHg 69%
    21:00 +3°C° 0 mm 2 m/s 640 mmHg 69%
    22:00 +3°C° 0,2 mm 2 m/s 640 mmHg 69%
    23:00 +3°C° 0,2 mm 2 m/s 640 mmHg 70%
    Mostrar mais